Weather History for KSRR - February, 2013

Change the Weather History Date:

Saturday, February 9, 2013

  Actual Average (WUND) Record (WUND)
Temperature  
Mean Temperature 36 °F -  
Max Temperature 48 °F - - (-1)
Min Temperature 24 °F - - (-1)
Degree Days  
Heating Degree Days 29    
Moisture  
Dew Point 9 °F    
Average Humidity 35    
Maximum Humidity 75    
Minimum Humidity 17    
Precipitation  
Precipitation 0.00 in - - ()
Sea Level Pressure  
Sea Level Pressure 29.79 in    
Wind  
Wind Speed 16 mph (SW)    
Max Wind Speed 53 mph    
Max Gust Speed 69 mph    
Visibility 9 miles    
Events      
Averages and records for this station are not official NWS values.
T = Trace of Precipitation, MM = Missing Value Source: NWS Daily Summary

Daily Weather History Graph

Daily Weather History Graph

Search for Another Location

Airport or City:

Trip Planner

Search our weather history database for the weather conditions in past years. The results will help you decide how hot, cold, wet, or windy it might be!

Date:

Astronomy

Feb. 09, 2013 Rise Set
Actual Time 6:51 AM MST 5:41 PM MST
Civil Twilight 6:25 AM MST 6:07 PM MST
Nautical Twilight 5:56 AM MST 6:36 PM MST
Astronomical Twilight 5:27 AM MST 7:05 PM MST
Moon 6:05 AM MST (2/9) 5:25 PM MST (2/9)
Length of Visible Light 11h 41m
Length of Day
10h 50m
Waning Crescent, 0% of the Moon is Illuminated
Feb 9
Waning Crescent
Feb 10
New
Feb 17
First Quarter
Feb 25
Full
Mar 4
Last Quarter

Hourly Weather History & Observations

Time (MST) Temp. Windchill Dew Point Humidity Pressure Visibility Wind Dir Wind Speed Gust Speed Precip Events Conditions
12:15 AM 32.0 °F - 23.0 °F 69% 29.92 in 10.0 mi Calm Calm - N/A   Clear
12:35 AM 32.0 °F - 23.0 °F 69% 29.91 in 10.0 mi Calm Calm - N/A   Clear
12:55 AM 32.0 °F - 24.8 °F 75% 29.91 in 10.0 mi Calm Calm - N/A   Clear
1:15 AM 32.0 °F - 24.8 °F 75% 29.90 in 10.0 mi Calm Calm - N/A   Clear
1:35 AM 32.0 °F 28.7 °F 23.0 °F 69% 29.89 in 10.0 mi WSW 3.5 mph - N/A   Clear
1:55 AM 32.0 °F 28.7 °F 23.0 °F 69% 29.87 in 10.0 mi SW 3.5 mph - N/A   Clear
2:15 AM 32.0 °F 28.7 °F 23.0 °F 69% 29.86 in 10.0 mi WNW 3.5 mph - N/A   Clear
2:35 AM 32.0 °F 24.8 °F 23.0 °F 69% 29.85 in 10.0 mi East 8.1 mph - N/A   Clear
2:55 AM 32.0 °F - 23.0 °F 69% 29.84 in 10.0 mi Calm Calm - N/A   Clear
3:15 AM 32.0 °F - 21.2 °F 64% 29.83 in 10.0 mi Calm Calm - N/A   Clear
3:35 AM 37.4 °F 28.9 °F 8.6 °F 30% 29.82 in 10.0 mi SSW 13.8 mph 23.0 mph N/A   Clear
3:55 AM 41.0 °F 31.4 °F 6.8 °F 24% 29.81 in 10.0 mi SW 21.9 mph 29.9 mph N/A   Clear
4:15 AM 41.0 °F 30.5 °F 5.0 °F 23% 29.80 in 10.0 mi SW 26.5 mph 31.1 mph N/A   Clear
4:35 AM 41.0 °F 30.9 °F 3.2 °F 21% 29.79 in 10.0 mi SW 24.2 mph 29.9 mph N/A   Clear
4:55 AM 41.0 °F 31.6 °F 3.2 °F 21% 29.79 in 10.0 mi SW 20.7 mph 32.2 mph N/A   Clear
5:15 AM 41.0 °F 31.6 °F 5.0 °F 23% 29.79 in 10.0 mi SW 20.7 mph 27.6 mph N/A   Clear
5:35 AM 41.0 °F 31.9 °F 5.0 °F 23% 29.79 in 10.0 mi SW 19.6 mph 27.6 mph N/A   Clear
5:55 AM 41.0 °F 31.4 °F 6.8 °F 24% 29.78 in 10.0 mi SW 21.9 mph 32.2 mph N/A   Clear
6:15 AM 41.0 °F 31.6 °F 6.8 °F 24% 29.78 in 10.0 mi SW 20.7 mph 26.5 mph N/A   Clear
6:35 AM 41.0 °F 31.9 °F 6.8 °F 24% 29.78 in 10.0 mi SSW 19.6 mph 26.5 mph N/A   Clear
6:55 AM 41.0 °F 31.4 °F 8.6 °F 26% 29.78 in 10.0 mi SW 21.9 mph 34.5 mph N/A   Clear
7:15 AM 41.0 °F 31.9 °F 8.6 °F 26% 29.78 in 10.0 mi SW 19.6 mph 31.1 mph N/A   Clear
7:35 AM 42.8 °F 33.8 °F 8.6 °F 25% 29.78 in 10.0 mi SW 21.9 mph 33.4 mph N/A   Clear
7:55 AM 44.6 °F 34.9 °F 8.6 °F 23% 29.77 in 10.0 mi SSW 28.8 mph 35.7 mph N/A   Clear
8:15 AM 44.6 °F 34.9 °F 8.6 °F 23% 29.76 in 10.0 mi SSW 28.8 mph 39.1 mph N/A   Clear
8:35 AM 44.6 °F 34.7 °F 8.6 °F 23% 29.77 in 10.0 mi SSW 29.9 mph 41.4 mph N/A   Clear
8:55 AM 46.4 °F 37.7 °F 8.6 °F 22% 29.76 in 10.0 mi SW 26.5 mph 42.6 mph N/A   Clear
9:15 AM 46.4 °F 37.5 °F 6.8 °F 20% 29.76 in 10.0 mi SW 27.6 mph 41.4 mph N/A   Clear
9:35 AM 46.4 °F 37.0 °F 5.0 °F 18% 29.75 in 10.0 mi SW 31.1 mph 42.6 mph N/A   Clear
9:55 AM 46.4 °F 37.4 °F 5.0 °F 18% 29.75 in 10.0 mi SW 28.8 mph 43.7 mph N/A   Clear
10:15 AM 46.4 °F 37.7 °F 5.0 °F 18% 29.75 in 10.0 mi SSW 26.5 mph 44.9 mph N/A   Clear
10:35 AM 48.2 °F - 5.0 °F 17% 29.75 in 10.0 mi SW 23.0 mph 41.4 mph N/A   Clear
10:55 AM 46.4 °F 36.7 °F 5.0 °F 18% 29.73 in 10.0 mi SW 33.4 mph 51.8 mph N/A   Clear
11:15 AM 46.4 °F 36.9 °F 5.0 °F 18% 29.72 in 10.0 mi SW 32.2 mph 46.0 mph N/A   Clear
11:35 AM 46.4 °F 36.7 °F 5.0 °F 18% 29.71 in 10.0 mi SW 33.4 mph 56.4 mph N/A   Clear
11:55 AM 48.2 °F - 5.0 °F 17% 29.70 in 10.0 mi SW 39.1 mph 51.8 mph N/A   Partly Cloudy
12:15 PM 46.4 °F 36.1 °F 5.0 °F 18% 29.69 in 8.0 mi SW 38.0 mph 55.2 mph N/A   Clear
12:35 PM 46.4 °F 35.5 °F 6.8 °F 20% 29.67 in 3.0 mi SW 43.7 mph 58.7 mph N/A   Haze
12:55 PM 46.4 °F 36.3 °F 10.4 °F 23% 29.68 in 5.0 mi WSW 36.8 mph 49.5 mph N/A   Haze
1:15 PM 46.4 °F 34.6 °F 10.4 °F 23% 29.67 in 5.0 mi WSW 52.9 mph 62.1 mph N/A   Haze
1:35 PM 44.6 °F 33.5 °F 12.2 °F 27% 29.67 in 5.0 mi SW 39.1 mph 69.0 mph N/A   Haze
1:55 PM 44.6 °F 33.9 °F 14.0 °F 29% 29.68 in 7.0 mi WSW 35.7 mph 50.6 mph N/A   Clear
2:15 PM 42.8 °F 31.4 °F 14.0 °F 31% 29.68 in 5.0 mi WSW 35.7 mph 48.3 mph N/A   Haze
2:35 PM 42.8 °F 33.3 °F 14.0 °F 31% 29.68 in 5.0 mi WSW 24.2 mph 48.3 mph N/A   Haze
2:55 PM 41.0 °F 28.6 °F 12.2 °F 31% 29.68 in 5.0 mi SW 38.0 mph 50.6 mph N/A   Haze
3:15 PM 41.0 °F 30.0 °F 10.4 °F 29% 29.70 in 7.0 mi WSW 28.8 mph 44.9 mph N/A   Clear
3:35 PM 41.0 °F 30.7 °F 10.4 °F 29% 29.71 in 10.0 mi WSW 25.3 mph 39.1 mph N/A   Clear
3:55 PM 39.2 °F 27.6 °F 8.6 °F 28% 29.72 in 10.0 mi West 28.8 mph 44.9 mph N/A   Partly Cloudy
4:15 PM 37.4 °F 26.1 °F 8.6 °F 30% 29.73 in 10.0 mi West 24.2 mph 42.6 mph N/A   Partly Cloudy
4:35 PM 35.6 °F 23.2 °F 8.6 °F 33% 29.74 in 10.0 mi West 26.5 mph 42.6 mph N/A   Partly Cloudy
4:55 PM 33.8 °F 19.9 °F 5.0 °F 30% 29.75 in 10.0 mi WSW 31.1 mph 38.0 mph N/A   Partly Cloudy
5:15 PM 32.0 °F 19.5 °F 6.8 °F 35% 29.76 in 10.0 mi WSW 21.9 mph 34.5 mph N/A   Partly Cloudy
5:35 PM 32.0 °F 20.1 °F 6.8 °F 35% 29.76 in 10.0 mi West 19.6 mph 29.9 mph N/A   Partly Cloudy
5:55 PM 32.0 °F 22.1 °F 5.0 °F 32% 29.78 in 10.0 mi WSW 13.8 mph 25.3 mph N/A   Partly Cloudy
6:15 PM 32.0 °F 21.2 °F 5.0 °F 32% 29.78 in 10.0 mi West 16.1 mph 25.3 mph N/A   Partly Cloudy
6:35 PM 30.2 °F 17.8 °F 3.2 °F 32% 29.79 in 10.0 mi WSW 19.6 mph 32.2 mph N/A   Clear
6:55 PM 28.4 °F 15.4 °F 5.0 °F 37% 29.80 in 10.0 mi WSW 19.6 mph 27.6 mph N/A   Clear
7:15 PM 28.4 °F 15.8 °F 3.2 °F 34% 29.81 in 10.0 mi WSW 18.4 mph - N/A   Clear
7:35 PM 28.4 °F 16.6 °F 5.0 °F 37% 29.82 in 10.0 mi SW 16.1 mph - N/A   Clear
7:55 PM 28.4 °F 16.6 °F 5.0 °F 37% 29.82 in 10.0 mi SW 16.1 mph 20.7 mph N/A   Clear
8:15 PM 26.6 °F 14.3 °F 5.0 °F 40% 29.83 in 10.0 mi SW 16.1 mph 20.7 mph N/A   Clear
8:35 PM 26.6 °F 14.7 °F 5.0 °F 40% 29.84 in 10.0 mi SW 15.0 mph 24.2 mph N/A   Clear
8:55 PM 26.6 °F 13.8 °F 5.0 °F 40% 29.84 in 10.0 mi WSW 17.3 mph 24.2 mph N/A   Clear
9:15 PM 26.6 °F 15.2 °F 5.0 °F 40% 29.85 in 10.0 mi WSW 13.8 mph 21.9 mph N/A   Clear
9:35 PM 26.6 °F 16.2 °F 5.0 °F 40% 29.85 in 10.0 mi SW 11.5 mph - N/A   Clear
9:55 PM 24.8 °F 14.0 °F 6.8 °F 46% 29.86 in 10.0 mi SW 11.5 mph - N/A   Clear
10:15 PM 24.8 °F 12.4 °F 5.0 °F 43% 29.86 in 10.0 mi WSW 15.0 mph 19.6 mph N/A   Clear
10:35 PM 26.6 °F 14.3 °F 5.0 °F 40% 29.87 in 10.0 mi WSW 16.1 mph 24.2 mph N/A   Clear
10:55 PM 24.8 °F 12.4 °F 6.8 °F 46% 29.87 in 10.0 mi SW 15.0 mph - N/A   Clear
11:15 PM 24.8 °F 12.9 °F 6.8 °F 46% 29.87 in 10.0 mi WSW 13.8 mph 21.9 mph N/A   Clear
11:35 PM 24.8 °F 15.3 °F 6.8 °F 46% 29.88 in 10.0 mi West 9.2 mph - N/A   Clear
11:55 PM 24.8 °F 12.4 °F 5.0 °F 43% 29.87 in 10.0 mi West 15.0 mph 23.0 mph N/A   Clear